Regional Weather Roundup
Issued by NWS Kansas City/Pleasant Hill, MO

Home | Current Version | Previous Version | Text Only | Print | Product List | Glossary On
Versions: 1 2 3 4 5 6 7 8 9 10 11 12 13 14 15 16 17 18 19 20 21 22 23 24 25 26 27 28 29 30 31 32 33 34 35 36 37 38 39 40 41 42 43 44 45 46 47 48 49 50
000
ASUS43 KEAX 240404
RWREAX

WEATHER ROUNDUP FOR EASTERN KANSAS AND NORTHWEST MISSOURI
NATIONAL WEATHER SERVICE KANSAS CITY/PLEASANT HILL MO
1100 PM CDT WED APR 23 2014

KSZ040-057-103>105-MOZ028-029-037-043-240500-
...KANSAS CITY METROPOLITAN AREA...

CITY           SKY/WX    TMP DP  RH WIND       PRES   REMARKS
K.C. INTL      CLOUDY    70  39  32 SE22      29.71R
K.C. DOWNTOWN  MOCLDY    72  40  31 SE16G24   29.70S
LEES SUMMIT    CLOUDY    70  39  32 S13G23    29.74R
OLATHE - IXD   MOCLDY    69  43  38 S18G30    29.70F
OLATHE - OJC   MOCLDY    68  41  37 S16G26    29.70R
LAWRENCE       CLOUDY    70  47  43 SE15      29.68S

$$

MOZ001>008-011>017-020>025-030>033-038>040-044>046-053-054-240500-
...NORTHERN AND CENTRAL MISSOURI...

CITY           SKY/WX    TMP DP  RH WIND       PRES   REMARKS
ST. JOSEPH     CLOUDY    64  40  41 SE18      29.68F
MOSBY          FAIR      63  39  42 SE9       29.74R
WHITEMAN AFB   MOCLDY    62  34  35 SE13      29.75F
CLINTON        CLOUDY    70  41  35 SE17G24   29.78S
SEDALIA        MOCLDY    61  40  45 SE17      29.79F
WARSAW         NOT AVBL
MARSHALL         N/A     61  43  51 SE15      29.78F
CHILLICOTHE      N/A     57  39  51 SE9       29.79R
MOBERLY        CLEAR     57  36  44 SE16G24   29.84S
KIRKSVILLE     CLEAR     53  34  48 SE16      29.83F

$$

MOZ041-047>049-056>058-063>065-088>090-097-240500-
...EASTERN AND SOUTHERN MISSOURI...

CITY           SKY/WX    TMP DP  RH WIND       PRES   REMARKS
ST. LOUIS INTL PTCLDY    58  36  43 SE13      29.95F
SPIRIT OF STL  CLEAR     57  34  41 SE8       29.93F
COLUMBIA       CLEAR     57  37  47 SE16G24   29.85S
JEFFERSON CITY CLEAR     59  38  45 SE9       29.86S
MEXICO         PTCLDY    54  37  54 SE15G23   29.87S
HANNIBAL       PTCLDY    57  27  30 SE12G18   29.88F
ROLLA          CLEAR     62  34  35 SE14      29.88R
LEBANON        PTCLDY    63  36  36 SE15      29.87S
OSAGE BEACH    PTCLDY    66  36  32 S9G17     29.87S
SPRINGFIELD    MOCLDY    65  43  44 SE17      29.83S
BRANSON        PTCLDY    63  43  48 SE13      29.89F
NEVADA         CLOUDY    68  45  42 SE18G24   29.76F
JOPLIN         MOCLDY    70  48  45 SE14      29.78F
WEST PLAINS    PTCLDY    60  36  40 SE9       29.94S
MALDEN         CLEAR     61  39  44 E8        29.96F

$$

IAZ060-094-KSZ022-034>040-054-083-096-NEZ052-066-093-240500-
...KANSAS...SOUTHEAST NEBRASKA AND IOWA...

CITY           SKY/WX    TMP DP  RH WIND       PRES   REMARKS
TOPEKA         CLOUDY    75  49  39 SE17G28   29.65S
MANHATTAN      CLOUDY    74  53  48 S25G33    29.56F
EMPORIA        CLOUDY    73  53  49 S23G33    29.63F
CHANUTE        CLOUDY    72  53  51 S20G29    29.70F
WICHITA        CLOUDY    74  51  44 S35G46    29.53F BLWGDUST
OMAHA          LGT RAIN  54  44  69 E9        29.68R
LINCOLN        CLOUDY    55  48  77 N17       29.65R
FALLS CITY     CLOUDY    65  43  44 SE12      29.64S
LAMONI         MOCLDY    55  37  50 SE14G26   29.76R
DES MOINES     CLOUDY    52  38  58 SE10      29.80R

$$




USA.gov is the U.S. government's official web portal to all federal, state and local government web resources and services.